GW2746 Weather Reports


Display with metric or nautical units.
time (UTC)temp
F
wind
direction
speed
MPH
gust
MPH
rain 1hr
in
rain 24hr
in
rain mn
in
humidity
%
barometer
mb
20260905150634 88 56 2.0 4.0 0.00 0.00 0.00 67 1015.0
20260905150154 87 262 1.0 2.0 0.00 0.00 0.00 68 1015.0
20260905145657 87 204 1.0 2.0 0.00 0.00 0.00 66 1014.9
20260905145134 87 204 1.0 1.0 0.00 0.00 0.00 66 1014.8
20260905144636 87 204 0.0 2.0 0.00 0.00 0.00 66 1014.9
20260905144134 87 204 1.0 2.0 0.00 0.00 0.00 66 1014.8
20260905143637 87 204 0.0 4.0 0.00 0.00 0.00 66 1014.6
20260905143137 87 204 2.0 4.0 0.00 0.00 0.00 65 1014.4
20260905142623 87 103 0.0 2.0 0.00 0.00 0.00 67 1014.4
20260905142122 86 103 1.0 4.0 0.00 0.00 0.00 68 1014.5
20260905141627 85 103 1.0 4.0 0.00 0.00 0.00 68 1014.5
20260905141148 85 119 1.0 6.0 0.00 0.00 0.00 70 1014.3
20260905140635 84 149 0.0 7.0 0.00 0.00 0.00 71 1014.1
20260905140135 84 135 2.0 7.0 0.00 0.00 0.00 71 1014.0
20260905135619 83 156 3.0 6.0 0.00 0.00 0.00 72 1013.9
20260905135136 83 137 1.0 6.0 0.00 0.00 0.00 73 1014.0
20260905134618 83 144 3.0 5.0 0.00 0.00 0.00 74 1014.1
20260905134116 82 145 1.0 5.0 0.00 0.00 0.00 75 1014.3
20260905133623 82 80 0.0 3.0 0.00 0.00 0.00 76 1014.5
20260905133126 81 80 2.0 3.0 0.00 0.00 0.00 77 1014.5
20260905132629 80 63 0.0 2.0 0.00 0.00 0.00 79 1014.4
20260905132127 80 63 0.0 2.0 0.00 0.00 0.00 79 1014.2
20260905131629 79 63 1.0 2.0 0.00 0.00 0.00 80 1014.0
20260905131129 78 63 0.0 2.0 0.00 0.00 0.00 81 1013.9
20260905130633 78 63 0.0 2.0 0.00 0.00 0.00 82 1013.8
20260905130132 78 63 1.0 2.0 0.00 0.00 0.00 83 1013.8
20260905125652 78 63 0.0 1.0 0.00 0.00 0.00 82 1013.8
20260905125126 78 63 0.0 1.0 0.00 0.00 0.00 82 1013.8
20260905124631 78 63 0.0 2.0 0.00 0.00 0.00 82 1013.7
20260905124129 78 63 1.0 2.0 0.00 0.00 0.00 82 1013.7
20260905123633 78 63 0.0 2.0 0.00 0.00 0.00 81 1013.6
20260905123131 78 63 0.0 2.0 0.00 0.00 0.00 81 1013.6
20260905122657 78 63 1.0 2.0 0.00 0.00 0.00 81 1013.5
20260905122118 78 63 1.0 3.0 0.00 0.00 0.00 81 1013.4
20260905121622 78 63 1.0 3.0 0.00 0.00 0.00 81 1013.2
20260905121119 78 148 1.0 2.0 0.00 0.00 0.00 81 1013.2
20260905120627 78 148 0.0 1.0 0.00 0.00 0.00 81 1013.1
20260905120146 78 142 0.0 2.0 0.00 0.00 0.00 80 1013.0
20260905115628 78 142 1.0 2.0 0.00 0.00 0.00 80 1012.9
20260905115123 78 142 0.0 1.0 0.00 0.00 0.00 80 1012.9
20260905114627 78 142 0.0 2.0 0.00 0.00 0.00 79 1013.0
20260905114130 78 142 0.0 2.0 0.00 0.00 0.00 79 1013.1
20260905113616 78 142 0.0 1.0 0.00 0.00 0.00 79 1013.1
20260905113115 78 142 1.0 2.0 0.00 0.00 0.00 79 1013.1
20260905112622 78 142 0.0 2.0 0.00 0.00 0.00 79 1013.2
20260905112120 78 142 0.0 2.0 0.00 0.00 0.00 79 1013.1
20260905111623 78 142 0.0 2.0 0.00 0.00 0.00 78 1013.0
20260905111120 78 142 0.0 2.0 0.00 0.00 0.00 78 1012.9
20260905110632 78 142 1.0 4.0 0.00 0.00 0.00 78 1013.0
20260905110132 78 142 2.0 4.0 0.00 0.00 0.00 78 1012.9
20260905105635 78 156 0.0 2.0 0.00 0.00 0.00 78 1012.8
20260905105132 79 156 0.0 1.0 0.00 0.00 0.00 78 1012.8
20260905104637 79 156 0.0 1.0 0.00 0.00 0.00 78 1012.9
20260905104115 79 156 0.0 1.0 0.00 0.00 0.00 77 1012.8
20260905103622 79 156 0.0 1.0 0.00 0.00 0.00 77 1012.8
20260905103126 79 156 0.0 2.0 0.00 0.00 0.00 76 1012.6
20260905102633 79 156 0.0 2.0 0.00 0.00 0.00 76 1012.6
20260905102131 79 156 0.0 2.0 0.00 0.00 0.00 76 1012.6
20260905101654 79 156 0.0 2.0 0.00 0.00 0.00 76 1012.6
20260905101151 79 156 1.0 2.0 0.00 0.00 0.00 76 1012.6
20260905100653 80 156 0.0 2.0 0.00 0.00 0.00 76 1012.6
20260905100134 80 141 0.0 2.0 0.00 0.00 0.00 75 1012.5
20260905095618 80 141 1.0 4.0 0.00 0.00 0.00 76 1012.5
20260905095117 80 183 0.0 4.0 0.00 0.00 0.00 75 1012.4
20260905094626 80 183 0.0 1.0 0.00 0.00 0.00 75 1012.3
20260905094124 80 183 0.0 4.0 0.00 0.00 0.00 75 1012.3
20260905093628 80 152 0.0 4.0 0.00 0.00 0.00 75 1012.2
20260905093126 80 148 1.0 4.0 0.00 0.00 0.00 75 1012.1
20260905092629 80 178 1.0 4.0 0.00 0.00 0.00 76 1012.1
20260905092127 80 172 1.0 4.0 0.00 0.00 0.00 76 1012.1
20260905091631 80 156 0.0 2.0 0.00 0.00 0.00 76 1012.1
20260905091128 80 156 1.0 2.0 0.00 0.00 0.00 76 1012.1
20260905090635 80 156 0.0 2.0 0.00 0.00 0.00 76 1013.1
20260905090134 79 156 0.0 2.0 0.00 0.00 0.00 77 1013.2
20260905085617 79 156 0.0 1.0 0.00 0.00 0.00 77 1013.2
20260905085136 79 156 0.0 2.0 0.00 0.00 0.00 78 1013.3
20260905084619 79 156 0.0 2.0 0.00 0.00 0.00 78 1013.3
20260905084119 79 156 0.0 1.0 0.00 0.00 0.00 78 1013.4
20260905083648 79 156 0.0 1.0 0.00 0.00 0.00 78 1013.4
20260905083130 79 156 0.0 0.0 0.00 0.00 0.00 78 1013.5
20260905082636 79 156 0.0 0.0 0.00 0.00 0.00 78 1013.5
20260905082135 80 156 0.0 1.0 0.00 0.00 0.00 78 1013.5
20260905081617 80 156 0.0 1.0 0.00 0.00 0.00 78 1013.6
20260905081123 80 156 0.0 1.0 0.00 0.00 0.00 78 1013.5
20260905080626 80 156 0.0 1.0 0.00 0.00 0.00 78 1013.6
20260905080126 80 156 0.0 1.0 0.00 0.00 0.00 77 1013.6
20260905075617 80 156 0.0 1.0 0.00 0.00 0.00 77 1013.7
20260905075137 80 156 0.0 1.0 0.00 0.00 0.00 77 1013.8
20260905074623 80 156 0.0 2.0 0.00 0.00 0.00 77 1013.9
20260905074121 80 156 0.0 2.0 0.00 0.00 0.00 77 1013.9
20260905073645 81 156 0.0 0.0 0.00 0.00 0.00 77 1013.9
20260905073126 81 156 0.0 0.0 0.00 0.00 0.00 76 1013.9
20260905072614 81 156 0.0 0.0 0.00 0.00 0.00 76 1014.0
20260905072135 81 156 0.0 1.0 0.00 0.00 0.00 76 1014.0
20260905071618 81 156 0.0 1.0 0.00 0.00 0.00 76 1013.9
20260905071135 82 156 0.0 1.0 0.00 0.00 0.00 75 1014.0
20260905070618 82 156 0.0 0.0 0.00 0.00 0.00 75 1014.0
20260905070118 82 156 0.0 0.0 0.00 0.00 0.00 74 1014.0
20260905065626 83 156 0.0 0.0 0.00 0.00 0.00 74 1014.0
20260905065149 83 156 0.0 0.0 0.00 0.00 0.00 74 1014.0
20260905064632 83 156 0.0 0.0 0.00 0.00 0.00 73 1014.1
20260905064129 83 156 0.0 1.0 0.00 0.00 0.00 73 1014.1
20260905063633 84 156 0.0 5.0 0.00 0.00 0.00 72 1014.1
20260905063132 84 156 1.0 5.0 0.00 0.00 0.00 72 1014.1
20260905062636 84 206 1.0 6.0 0.00 0.00 0.00 71 1014.1
20260905062135 84 117 0.0 6.0 0.00 0.00 0.00 71 1014.1
20260905061619 84 291 4.0 6.0 0.00 0.00 0.00 71 1014.1
20260905061119 84 142 0.0 4.0 0.00 0.00 0.00 72 1014.1
20260905060646 84 250 0.0 3.0 0.00 0.00 0.00 72 1014.1
20260905060144 84 109 1.0 4.0 0.00 0.00 0.00 72 1014.1
20260905055629 84 185 1.0 4.0 0.00 0.00 0.00 73 1014.1
20260905055126 84 140 0.0 2.0 0.00 0.00 0.00 74 1014.1
20260905054633 84 140 0.0 3.0 0.00 0.00 0.00 74 1014.1
20260905054131 84 140 1.0 3.0 0.00 0.00 0.00 74 1014.1
20260905053616 84 174 0.0 2.0 0.00 0.00 0.00 74 1014.1
20260905053135 84 218 0.0 2.0 0.00 0.00 0.00 74 1014.0
20260905052621 84 179 2.0 3.0 0.00 0.00 0.00 74 1013.9
20260905052142 84 209 1.0 3.0 0.00 0.00 0.00 75 1013.9
20260905051626 84 196 1.0 3.0 0.00 0.00 0.00 74 1013.9
20260905051124 84 196 0.0 3.0 0.00 0.00 0.00 74 1013.9
20260905050630 84 196 1.0 3.0 0.00 0.00 0.00 74 1013.9
20260905050151 84 196 0.0 3.0 0.00 0.00 0.00 74 1013.8
20260905045625 85 196 1.0 3.0 0.00 0.00 0.00 74 1013.9
20260905045123 85 195 0.0 3.0 0.00 0.00 0.00 74 1013.7
20260905044626 85 260 0.0 1.0 0.00 0.00 0.00 74 1013.7
20260905044123 85 260 0.0 2.0 0.00 0.00 0.00 74 1013.6
20260905043627 85 260 0.0 6.0 0.00 0.00 0.00 73 1013.6
20260905043125 85 260 0.0 6.0 0.00 0.00 0.00 73 1013.6
20260905042629 86 184 1.0 4.0 0.00 0.00 0.00 73 1013.5
20260905042126 86 180 1.0 3.0 0.00 0.00 0.00 72 1013.5
20260905041632 86 180 0.0 3.0 0.00 0.00 0.00 72 1013.4
20260905041134 86 124 1.0 2.0 0.00 0.00 0.00 72 1013.5
20260905040621 86 124 0.0 4.0 0.00 0.00 0.00 72 1013.4
20260905040122 86 124 0.0 7.0 0.00 0.00 0.00 72 1013.4
20260905035631 86 197 1.0 4.0 0.00 0.00 0.00 72 1013.4
20260905035129 87 150 2.0 4.0 0.00 0.00 0.00 72 1013.4
20260905034632 87 178 1.0 4.0 0.00 0.00 0.00 72 1013.3
20260905034150 87 187 0.0 3.0 0.00 0.00 0.00 72 1013.3
20260905033633 87 240 0.0 3.0 0.00 0.00 0.00 72 1013.3
20260905033116 87 233 0.0 5.0 0.00 0.00 0.00 72 1013.2
20260905032623 87 233 3.0 5.0 0.00 0.00 0.00 71 1013.2
20260905032121 88 185 1.0 5.0 0.00 0.00 0.00 71 1013.2
20260905031645 88 269 0.0 5.0 0.00 0.00 0.00 71 1013.1
20260905031121 88 252 2.0 3.0 0.00 0.00 0.00 71 1013.1
20260905030624 88 252 0.0 3.0 0.00 0.00 0.00 70 1013.0
20260905030127 88 250 0.0 3.0 0.00 0.00 0.00 70 1013.0
20260905025632 88 229 1.0 3.0 0.00 0.00 0.00 69 1012.9
20260905025154 89 212 0.0 4.0 0.00 0.00 0.00 69 1012.8
20260905024617 89 175 0.0 4.0 0.00 0.00 0.00 69 1012.8
20260905024137 89 175 0.0 4.0 0.00 0.00 0.00 69 1012.8
20260905023623 89 185 1.0 4.0 0.00 0.00 0.00 69 1012.7
20260905023128 89 185 0.0 2.0 0.00 0.00 0.00 69 1012.8
20260905022616 89 160 0.0 2.0 0.00 0.00 0.00 68 1012.8
20260905022136 89 160 1.0 5.0 0.00 0.00 0.00 69 1012.8
20260905021639 89 160 0.0 5.0 0.00 0.00 0.00 69 1012.8
20260905021116 89 185 1.0 2.0 0.00 0.00 0.00 69 1012.8
20260905020628 89 131 1.0 2.0 0.00 0.00 0.00 70 1012.8
20260905020146 89 131 1.0 3.0 0.00 0.00 0.00 70 1012.8
20260905015629 89 199 2.0 3.0 0.00 0.00 0.00 70 1012.8
20260905015127 89 125 0.0 0.0 0.00 0.00 0.00 70 1012.6
20260905014633 89 125 0.0 0.0 0.00 0.00 0.00 70 1012.5
20260905014133 90 125 0.0 0.0 0.00 0.00 0.00 70 1012.5
20260905013615 90 125 0.0 0.0 0.00 0.00 0.00 69 1012.4
20260905013138 90 125 0.0 0.0 0.00 0.00 0.00 69 1012.3
20260905012619 91 125 0.0 0.0 0.00 0.00 0.00 68 1012.3
20260905012117 91 125 0.0 0.0 0.00 0.00 0.00 67 1012.3
20260905011620 91 125 0.0 1.0 0.00 0.00 0.00 67 1012.2
20260905011117 91 125 0.0 1.0 0.00 0.00 0.00 67 1012.2
20260905010621 92 125 1.0 1.0 0.00 0.00 0.00 66 1012.3
20260905010120 92 125 0.0 1.0 0.00 0.00 0.00 66 1012.2
20260905005624 92 125 0.0 2.0 0.00 0.00 0.00 65 1012.1
20260905005123 92 125 0.0 2.0 0.00 0.00 0.00 65 1012.1
20260905004627 93 125 0.0 1.0 0.00 0.00 0.00 65 1012.1
20260905004130 93 125 0.0 0.0 0.00 0.00 0.00 65 1012.1
20260905003617 93 125 0.0 2.0 0.00 0.00 0.00 65 1012.2
20260905003121 93 125 0.0 2.0 0.00 0.00 0.00 64 1012.1
20260905002624 94 125 0.0 2.0 0.00 0.00 0.00 63 1012.0
20260905002124 94 125 1.0 2.0 0.00 0.00 0.00 62 1012.0
20260905001632 94 136 1.0 2.0 0.00 0.00 0.00 62 1012.0
20260905001131 94 212 0.0 6.0 0.00 0.00 0.00 62 1012.0
20260905000617 95 200 2.0 4.0 0.00 0.00 0.00 61 1012.0
20260905000139 95 222 0.0 1.0 0.00 0.00 0.00 63 1012.0
20260904235646 95 222 0.0 2.0 0.00 0.00 0.00 62 1012.0
20260904235121 94 222 0.0 2.0 0.00 0.00 0.00 62 1012.0
20260904234623 94 222 0.0 2.0 0.00 0.00 0.00 62 1012.0
20260904234121 94 222 0.0 4.0 0.00 0.00 0.00 61 1012.0
20260904233623 94 221 2.0 5.0 0.00 0.00 0.00 61 1012.0
20260904233124 94 219 1.0 5.0 0.00 0.00 0.00 60 1012.1
20260904232633 95 246 2.0 5.0 0.00 0.00 0.00 60 1012.1
20260904232136 95 253 3.0 5.0 0.00 0.00 0.00 60 1012.1
20260904231625 96 233 2.0 5.0 0.00 0.00 0.00 59 1012.1
20260904231127 96 251 3.0 5.0 0.00 0.00 0.00 59 1012.2
20260904230615 96 212 3.0 5.0 0.00 0.00 0.00 59 1012.2
20260904230139 95 207 1.0 5.0 0.00 0.00 0.00 59 1012.2
20260904225625 95 204 3.0 5.0 0.00 0.00 0.00 58 1012.2
20260904225126 95 239 2.0 5.0 0.00 0.00 0.00 59 1012.2
20260904224633 95 246 3.0 5.0 0.00 0.00 0.00 59 1012.2
20260904224132 94 221 2.0 5.0 0.00 0.00 0.00 59 1012.1
20260904223636 95 227 2.0 5.0 0.00 0.00 0.00 58 1012.1
20260904223114 95 233 2.0 6.0 0.00 0.00 0.00 57 1012.1
20260904222642 95 268 4.0 8.0 0.00 0.00 0.00 57 1012.1
20260904222154 95 237 4.0 8.0 0.00 0.00 0.00 56 1012.2
20260904221636 95 241 3.0 5.0 0.00 0.00 0.00 56 1012.1
20260904221115 95 270 3.0 9.0 0.00 0.00 0.00 57 1012.1
20260904220622 95 256 2.0 9.0 0.00 0.00 0.00 56 1012.1
20260904220141 95 260 3.0 6.0 0.00 0.00 0.00 56 1012.1
20260904215626 96 262 3.0 7.0 0.00 0.00 0.00 55 1012.0
20260904215122 96 219 4.0 8.0 0.00 0.00 0.00 55 1012.1
20260904214647 96 207 2.0 8.0 0.00 0.00 0.00 56 1012.1
20260904214126 96 210 4.0 8.0 0.00 0.00 0.00 57 1012.1
20260904213629 96 181 5.0 8.0 0.00 0.00 0.00 56 1012.1
20260904213131 96 265 2.0 8.0 0.00 0.00 0.00 56 1012.0
20260904212635 97 236 3.0 9.0 0.00 0.00 0.00 56 1011.9
20260904212130 97 194 4.0 9.0 0.00 0.00 0.00 56 1011.9
20260904211633 97 182 3.0 9.0 0.00 0.00 0.00 57 1012.0
20260904211151 96 187 5.0 9.0 0.00 0.00 0.00 56 1012.0
20260904210617 97 287 4.0 9.0 0.00 0.00 0.00 55 1012.1
20260904210119 97 165 3.0 9.0 0.00 0.00 0.00 55 1012.0
20260904205622 96 219 4.0 9.0 0.00 0.00 0.00 55 1012.0
20260904205120 96 239 5.0 7.0 0.00 0.00 0.00 55 1012.0
20260904204644 96 211 2.0 9.0 0.00 0.00 0.00 56 1012.0
20260904204122 96 240 5.0 9.0 0.00 0.00 0.00 57 1012.1
20260904203626 96 253 4.0 8.0 0.00 0.00 0.00 56 1012.1
20260904203125 96 222 3.0 8.0 0.00 0.00 0.00 55 1012.1
20260904202633 96 202 2.0 7.0 0.00 0.00 0.00 55 1012.2
20260904202129 96 158 4.0 7.0 0.00 0.00 0.00 56 1012.2
20260904201619 96 202 2.0 7.0 0.00 0.00 0.00 57 1012.3
20260904201121 95 181 2.0 9.0 0.00 0.00 0.00 58 1012.3
20260904200625 95 210 7.0 9.0 0.00 0.00 0.00 57 1012.4
20260904200126 96 251 4.0 7.0 0.00 0.00 0.00 57 1012.4
20260904195630 96 259 4.0 8.0 0.00 0.00 0.00 57 1012.4
20260904195126 96 259 2.0 8.0 0.00 0.00 0.00 57 1012.4
20260904194630 95 250 2.0 7.0 0.00 0.00 0.00 58 1012.4
20260904194128 95 324 3.0 7.0 0.00 0.00 0.00 58 1012.5
20260904193631 95 266 3.0 7.0 0.00 0.00 0.00 59 1012.5
20260904193128 95 130 4.0 8.0 0.00 0.00 0.00 59 1012.5
20260904192635 94 126 3.0 8.0 0.00 0.00 0.00 59 1012.5
20260904192153 94 257 2.0 7.0 0.00 0.00 0.00 59 1012.6
20260904191642 94 262 2.0 7.0 0.00 0.00 0.00 59 1012.6
20260904191122 94 178 3.0 8.0 0.00 0.00 0.00 59 1012.6
20260904190629 94 139 3.0 8.0 0.00 0.00 0.00 59 1012.6
20260904190130 94 190 4.0 8.0 0.00 0.00 0.00 59 1012.6
20260904185617 94 152 2.0 6.0 0.00 0.00 0.00 61 1012.7
20260904185117 93 187 3.0 10.0 0.00 0.00 0.00 62 1012.7
20260904184625 93 181 3.0 10.0 0.00 0.00 0.00 61 1012.8
20260904184125 93 212 2.0 6.0 0.00 0.00 0.00 61 1012.8
20260904183647 93 194 5.0 6.0 0.00 0.00 0.00 61 1012.9
20260904183126 92 188 1.0 7.0 0.00 0.00 0.00 61 1012.9
20260904182630 92 295 3.0 8.0 0.00 0.00 0.00 61 1012.9
20260904182131 92 295 3.0 8.0 0.00 0.00 0.00 62 1012.9
20260904181616 91 183 2.0 9.0 0.00 0.00 0.00 62 1012.9
20260904181136 91 202 5.0 9.0 0.00 0.00 0.00 62 1013.0
20260904180644 90 141 1.0 6.0 0.00 0.00 0.00 65 1012.9
20260904180145 90 262 1.0 5.0 0.00 0.00 0.00 63 1012.9
20260904175631 90 223 2.0 8.0 0.00 0.00 0.00 64 1012.9
20260904175129 90 318 3.0 8.0 0.00 0.00 0.00 62 1013.0
20260904174633 91 300 3.0 7.0 0.00 0.00 0.00 63 1013.0
20260904174134 90 226 2.0 7.0 0.00 0.00 0.00 65 1013.0
20260904173635 90 271 4.0 7.0 0.00 0.00 0.00 65 1013.0
20260904173132 89 257 2.0 5.0 0.00 0.00 0.00 65 1013.0
20260904172635 90 285 3.0 5.0 0.00 0.00 0.00 64 1013.1
20260904172132 90 181 2.0 7.0 0.00 0.00 0.00 64 1013.0
20260904171657 89 285 2.0 7.0 0.00 0.00 0.00 65 1013.1
20260904171154 89 294 4.0 8.0 0.00 0.00 0.00 65 1013.0
20260904170621 89 232 5.0 8.0 0.00 0.00 0.00 65 1013.1
20260904170126 89 248 4.0 8.0 0.00 0.00 0.00 67 1013.0
20260904165631 88 124 3.0 8.0 0.00 0.00 0.00 66 1013.0
20260904165134 88 229 3.0 8.0 0.00 0.01 0.00 67 1013.0
20260904164638 88 282 4.0 8.0 0.00 0.01 0.00 66 1013.0
20260904164134 88 223 3.0 7.0 0.00 0.01 0.00 68 1013.0
20260904163637 88 216 2.0 7.0 0.00 0.01 0.00 68 1013.0
20260904163155 88 178 3.0 6.0 0.00 0.01 0.00 68 1012.0
20260904162618 88 245 3.0 7.0 0.00 0.01 0.00 68 1011.9
20260904162136 88 206 4.0 8.0 0.00 0.01 0.00 68 1011.9
20260904161619 87 211 2.0 8.0 0.00 0.01 0.00 69 1012.0
20260904161135 87 190 4.0 7.0 0.00 0.01 0.00 69 1012.1
20260904160619 87 289 3.0 7.0 0.00 0.01 0.00 70 1012.2
20260904160117 87 228 4.0 7.0 0.00 0.01 0.00 70 1012.2
20260904155623 86 246 2.0 10.0 0.00 0.01 0.00 71 1012.2
20260904155123 86 185 3.0 10.0 0.00 0.01 0.00 71 1012.2
20260904154627 86 204 4.0 8.0 0.00 0.01 0.00 71 1012.2
20260904154127 86 291 4.0 8.0 0.00 0.01 0.00 71 1012.2
20260904153632 86 175 3.0 7.0 0.00 0.01 0.00 71 1012.2
20260904153114 85 169 2.0 7.0 0.00 0.01 0.00 71 1012.2
20260904152624 85 286 5.0 7.0 0.00 0.01 0.00 72 1012.2
20260904152122 85 285 2.0 6.0 0.00 0.01 0.00 72 1012.1
20260904151630 85 306 3.0 6.0 0.00 0.01 0.00 73 1012.1
20260904151134 84 262 3.0 8.0 0.00 0.01 0.00 73 1012.2